Tracking 35331 objects as of 16-Sep-2026
HD Live streaming from Space Station
objects crossing your sky now

KUIPER-00476

Track KUIPER-00476 now!
10-day predictions
KUIPER-00476 is classified as:


NORAD ID: 68874
Int'l Code: 2026-095L
Launch date: April 28, 2026
Source: United States (US)
Launch site: AIR FORCE EASTERN TEST RANGE (AFETR)
Your satellite tracking list
Your tracking list is empty




NASA's NSSDC Master Catalog

Two Line Element Set (TLE):
1 68874U 26095L   26259.25002315 -.00049843  00000-0 -46318-2 0  9991
2 68874  51.8918 168.2879 0011415 258.3648 119.3948 14.93986822  5749
Source of the keplerian elements: AFSPC